Latest Coastal Weather Observations for Lake Macquarie - Cooranbong

IDN60701

Issued at 6:51 am EST Saturday 7 May 2016 (issued every 10 minutes, with the page automatically refreshed every 10 minutes)

About coastal observations | Map of coastal stations | Coastal observations for NSW | Marine services | Other Formats
Station Details ID: 061412 Name: LAKE MACQUARIE AWS Lat: -33.09 Lon: 151.46 Height: 6.0 m
Data from the previous 72 hours. | See also: Recent months at Lake Macquarie - Cooranbong
Date/Time
EST
Temp

°C
Wind Pressure Rain
since 9am
mm
Weather Cloud Vis
km
Sea
Height
m
Swell
Dir
 
Speed
knots
Gust
knots
hPa Trend Height
m
Period
s
Dir
07/06:30am 6.6 CALM 0 0 1020.2 - 0.2 - - - - - - -
07/06:00am 6.7 CALM 0 0 1020.0 - 0.2 - - - - - - -
07/05:30am 6.9 CALM 0 0 1019.7 - 0.2 - - - - - - -
07/05:00am 6.8 CALM 0 0 1019.5 - 0.2 - - - - - - -
07/04:30am 7.2 CALM 0 0 1019.4 - 0.2 - - - - - - -
07/04:00am 7.2 CALM 0 0 1019.3 - 0.2 - - - - - - -
07/03:30am 7.6 CALM 0 0 1019.4 - 0.2 - - - - - - -
07/03:00am 7.9 CALM 0 0 1019.5 - 0.2 - - - - - - -
07/02:30am 8.1 CALM 0 0 1019.6 - 0.2 - - - - - - -
07/02:00am 8.2 CALM 0 0 1019.7 - 0.2 - - - - - - -
07/01:30am 8.2 CALM 0 0 1020.0 - 0.2 - - - - - - -
07/01:00am 8.6 CALM 0 0 1019.9 - 0.2 - - - - - - -
07/12:30am 8.8 CALM 0 0 1020.1 - 0.2 - - - - - - -
07/12:00am 9.2 CALM 0 0 1020.1 - 0.2 - - - - - - -
 
Date/Time
EST
Temp

°C
Wind Pressure Rain
since 9am
mm
Weather Cloud Vis
km
Sea
Height
m
Swell
Dir
 
Speed
knots
Gust
knots
hPa Trend Height
m
Period
s
Dir
06/11:30pm 9.4 CALM 0 0 1020.0 - 0.2 - - - - - - -
06/11:00pm 9.8 CALM 0 0 1019.9 - 0.2 - - - - - - -
06/10:30pm 10.1 CALM 0 0 1020.0 - 0.2 - - - - - - -
06/10:00pm 10.4 CALM 0 0 1020.0 - 0.2 - - - - - - -
06/09:30pm 10.4 CALM 0 0 1020.0 - 0.2 - - - - - - -
06/09:00pm 11.3 CALM 0 0 1019.8 - 0.2 - - - - - - -
06/08:30pm 11.7 CALM 0 0 1019.8 - 0.2 - - - - - - -
06/08:00pm 12.3 CALM 0 0 1019.7 - 0.2 - - - - - - -
06/07:30pm 12.7 CALM 0 0 1019.5 - 0.2 - - - - - - -
06/07:00pm 13.8 CALM 0 0 1019.4 - 0.2 - - - - - - -
06/06:30pm 14.2 CALM 0 0 1019.2 - 0.2 - - - - - - -
06/06:00pm 14.9 CALM 0 0 1018.8 - 0.2 - - - - - - -
06/05:30pm 17.2 CALM 0 0 1018.4 - 0.2 - - - - - - -
06/05:00pm 19.8 CALM 0 0 1017.9 - 0.2 - - - - - - -
06/04:30pm 21.7 ESE 2 4 1017.7 - 0.2 - - - - - - -
06/04:00pm 22.9 E 3 6 1017.3 - 0.2 - - - - - - -
06/03:30pm 23.3 E 4 8 1017.3 - 0.2 - - - - - - -
06/03:00pm 23.7 E 5 7 1017.3 - 0.2 - - - - - - -
06/02:30pm 24.3 E 4 7 1017.2 - 0.2 - - - - - - -
06/02:00pm 24.3 E 3 6 1017.1 - 0.2 - - - - - - -
06/01:30pm 24.7 E 5 8 1017.3 - 0.2 - - - - - - -
06/01:00pm 24.6 SE 3 5 1017.6 - 0.2 - - - - - - -
06/12:30pm 24.5 SW 2 5 1017.9 - 0.2 - - - - - - -
06/12:00pm 24.2 S 1 3 1018.5 - 0.2 Recent precip. - - - - - -
06/11:30am 23.8 NW 1 2 1018.8 - 0.2 - - - - - - -
06/11:00am 23.4 WNW 1 4 1019.3 - 0.0 - - - - - - -
06/10:30am 21.6 CALM 0 2 1019.7 - 0.0 - - - - - - -
06/10:00am 20.5 CALM 0 2 1019.7 - 0.0 - - - - - - -
06/09:30am 18.0 CALM 0 0 1019.9 - 0.0 - - - - - - -
06/09:00am 15.5 CALM 0 1 1019.9 - 0.0 - - - - - - -
06/08:30am 13.2 CALM 0 0 1019.7 - 0.0 - - - - - - -
06/08:00am 10.1 CALM 0 0 1019.6 - 0.0 - - - - - - -
06/07:30am 8.0 CALM 0 0 1019.2 - 0.0 - - - - - - -
06/07:00am 7.5 CALM 0 0 1018.6 - 0.0 - - - - - - -
06/06:30am 7.4 CALM 0 0 1018.3 - 0.0 - - - - - - -
06/06:00am 7.9 CALM 0 0 1018.0 - 0.0 - - - - - - -
06/05:30am 8.0 CALM 0 0 1017.8 - 0.0 - - - - - - -
06/05:00am 8.1 CALM 0 0 1017.7 - 0.0 - - - - - - -
06/04:30am 8.0 CALM 0 0 1017.6 - 0.0 - - - - - - -
06/04:00am 8.3 CALM 0 0 1017.5 - 0.0 - - - - - - -
06/03:30am 8.6 CALM 0 0 1017.6 - 0.0 - - - - - - -
06/03:00am 8.9 CALM 0 0 1017.7 - 0.0 - - - - - - -
06/02:30am 9.2 CALM 0 0 1017.7 - 0.0 - - - - - - -
06/02:00am 9.3 CALM 0 0 1017.9 - 0.0 - - - - - - -
06/01:30am 9.5 CALM 0 0 1017.9 - 0.0 - - - - - - -
06/01:00am 10.2 CALM 0 0 1017.8 - 0.0 - - - - - - -
06/12:30am 9.9 CALM 0 0 1018.0 - 0.0 - - - - - - -
06/12:00am 10.4 CALM 0 0 1018.1 - 0.0 - - - - - - -
 
Date/Time
EST
Temp

°C
Wind Pressure Rain
since 9am
mm
Weather Cloud Vis
km
Sea
Height
m
Swell
Dir
 
Speed
knots
Gust
knots
hPa Trend Height
m
Period
s
Dir
05/11:30pm 10.9 CALM 0 0 1018.2 - 0.0 - - - - - - -
05/11:00pm 10.8 CALM 0 0 1018.3 - 0.0 - - - - - - -
05/10:30pm 11.4 CALM 0 0 1018.3 - 0.0 - - - - - - -
05/10:00pm 11.8 CALM 0 0 1018.5 - 0.0 - - - - - - -
05/09:30pm 12.4 CALM 0 0 1018.5 - 0.0 - - - - - - -
05/09:00pm 12.7 CALM 0 0 1018.7 - 0.0 - - - - - - -
05/08:30pm 12.9 CALM 0 0 1018.6 - 0.0 - - - - - - -
05/08:00pm 13.6 CALM 0 0 1018.6 - 0.0 - - - - - - -
05/07:30pm 14.3 CALM 0 0 1018.4 - 0.0 - - - - - - -
05/07:00pm 15.2 CALM 0 0 1018.2 - 0.0 - - - - - - -
05/06:30pm 15.1 CALM 0 0 1018.0 - 0.0 - - - - - - -
05/06:00pm 16.3 CALM 0 0 1017.8 - 0.0 - - - - - - -
05/05:30pm 18.1 CALM 0 0 1017.5 - 0.0 - - - - - - -
05/05:00pm 19.9 SE 1 2 1017.3 - 0.0 - - - - - - -
05/04:30pm 20.9 E 3 6 1017.1 - 0.0 - - - - - - -
05/04:00pm 21.2 ESE 5 9 1017.1 - 0.0 - - - - - - -
05/03:30pm 21.8 ESE 4 7 1017.1 - 0.0 - - - - - - -
05/03:00pm 21.7 E 6 10 1017.1 - 0.0 - - - - - - -
05/02:30pm 21.7 ESE 8 12 1017.1 - 0.0 - - - - - - -
05/02:00pm 22.3 E 5 9 1017.2 - 0.0 - - - - - - -
05/01:30pm 22.1 E 6 9 1017.4 - 0.0 - - - - - - -
05/01:00pm 23.2 E 5 8 1017.5 - 0.0 - - - - - - -
05/12:30pm 23.5 E 4 7 1017.9 - 0.0 - - - - - - -
05/12:00pm 23.7 NE 2 5 1018.4 - 0.0 - - - - - - -
05/11:30am 23.1 WNW 4 5 1019.0 - 0.0 - - - - - - -
05/11:00am 22.7 NW 4 7 1019.6 - 0.0 - - - - - - -
05/10:30am 22.1 WSW 1 3 1020.0 - 0.0 - - - - - - -
05/10:00am 21.2 CALM 0 0 1020.5 - 0.0 - - - - - - -
05/09:30am 18.7 ENE 1 2 1020.7 - 0.0 - - - - - - -
05/09:00am 17.3 CALM 0 0 1020.9 - 0.0 - - - - - - -
05/08:30am 15.7 CALM 0 0 1020.9 - 0.0 - - - - - - -
05/08:00am 12.1 CALM 0 0 1020.7 - 0.0 - - - - - - -
05/07:30am 9.7 CALM 0 0 1020.4 - 0.0 - - - - - - -
05/07:00am 8.9 CALM 0 0 1020.1 - 0.0 - - - - - - -
05/06:30am 8.9 CALM 0 0 1019.8 - 0.0 - - - - - - -
05/06:00am 8.8 CALM 0 0 1019.5 - 0.0 - - - - - - -
05/05:30am 9.2 CALM 0 0 1019.3 - 0.0 - - - - - - -
05/05:00am 9.3 CALM 0 0 1019.1 - 0.0 - - - - - - -
05/04:30am 9.6 CALM 0 0 1018.8 - 0.0 - - - - - - -
05/04:00am 9.5 CALM 0 0 1018.5 - 0.0 - - - - - - -
05/03:30am 9.8 CALM 0 0 1018.3 - 0.0 - - - - - - -
05/03:00am 10.1 CALM 0 0 1018.3 - 0.0 - - - - - - -
05/02:30am 10.2 CALM 0 0 1018.3 - 0.0 - - - - - - -
05/02:00am 10.4 CALM 0 0 1018.4 - 0.0 - - - - - - -
05/01:30am 10.8 CALM 0 0 1018.5 - 0.0 - - - - - - -
05/01:00am 10.8 CALM 0 0 1018.6 - 0.0 - - - - - - -
05/12:30am 11.1 CALM 0 0 1018.7 - 0.0 - - - - - - -
05/12:00am 11.3 CALM 0 0 1018.7 - 0.0 - - - - - - -
 
Date/Time
EST
Temp

°C
Wind Pressure Rain
since 9am
mm
Weather Cloud Vis
km
Sea
Height
m
Swell
Dir
 
Speed
knots
Gust
knots
hPa Trend Height
m
Period
s
Dir
04/11:30pm 11.7 CALM 0 0 1018.6 - 0.0 - - - - - - -
04/11:00pm 11.4 CALM 0 0 1018.6 - 0.0 - - - - - - -
04/10:30pm 12.4 CALM 0 0 1018.6 - 0.0 - - - - - - -
04/10:00pm 12.4 CALM 0 0 1018.7 - 0.0 - - - - - - -
04/09:30pm 13.1 CALM 0 0 1018.6 - 0.0 - - - - - - -
04/09:00pm 13.6 CALM 0 0 1018.4 - 0.0 - - - - - - -
04/08:30pm 13.9 CALM 0 0 1018.2 - 0.0 - - - - - - -
04/08:00pm 14.2 CALM 0 0 1017.8 - 0.0 - - - - - - -
04/07:30pm 14.9 CALM 0 0 1017.4 - 0.0 - - - - - - -
04/07:00pm 15.4 CALM 0 0 1017.1 - 0.0 - - - - - - -
04/06:30pm 16.2 CALM 0 0 1016.6 - 0.0 - - - - - - -
04/06:00pm 18.0 CALM 0 0 1016.1 - 0.0 - - - - - - -
04/05:30pm 19.6 ESE 2 3 1015.3 - 0.0 - - - - - - -
04/05:00pm 21.3 ESE 5 7 1014.8 - 0.0 - - - - - - -
04/04:30pm 24.0 ENE 1 3 1014.4 - 0.0 - - - - - - -
04/04:00pm 24.6 N 4 7 1014.1 - 0.0 - - - - - - -
04/03:30pm 25.7 NNE 2 3 1014.0 - 0.0 - - - - - - -
04/03:00pm 25.6 N 4 6 1014.0 - 0.0 - - - - - - -
04/02:30pm 26.1 WNW 2 4 1014.0 - 0.0 - - - - - - -
04/02:00pm 25.2 N 4 5 1014.1 - 0.0 - - - - - - -
04/01:30pm 25.6 WSW 2 7 1014.0 - 0.0 - - - - - - -
04/01:00pm 24.8 WNW 5 10 1014.4 - 0.0 - - - - - - -
04/12:30pm 24.6 WNW 6 9 1014.7 - 0.0 - - - - - - -
04/12:00pm 24.7 WNW 4 11 1014.9 - 0.0 - - - - - - -
04/11:30am 24.2 NW 5 9 1015.3 - 0.0 - - - - - - -
04/11:00am 23.8 NW 5 10 1015.6 - 0.0 - - - - - - -
04/10:30am 23.2 NW 6 10 1015.8 - 0.0 - - - - - - -
04/10:00am 22.8 NW 5 9 1015.8 - 0.0 - - - - - - -
04/09:30am 21.8 NNW 5 9 1015.7 - 0.0 - - - - - - -
04/09:00am 20.9 NNW 3 7 1015.8 - 0.0 - - - - - - -
04/08:30am 18.1 N 3 4 1015.7 - 0.0 - - - - - - -
04/08:24am 16.8 N 3 5 1015.7 - 0.0 - - - - - - -
04/08:00am 11.7 CALM 0 0 1015.5 - 0.0 - - - - - - -
04/07:30am 9.6 CALM 0 0 1015.1 - 0.0 - - - - - - -
04/07:00am 8.6 CALM 0 0 1014.6 - 0.0 - - - - - - -

Other Formats:

Comma delimited format used in spreadsheet applications
http://www.bom.gov.au/fwo/IDN60701/IDN60701.95767.axf

JavaScript Object Notation format (JSON) in row-major order
http://www.bom.gov.au/fwo/IDN60701/IDN60701.95767.json